TimeEDT,TemperatureF,Dew PointF,Humidity,Sea Level PressureIn,VisibilityMPH,Wind Direction,Wind SpeedMPH,Gust SpeedMPH,PrecipitationIn,Events,Conditions,WindDirDegrees,DateUTC
12:15 AM,58.3,51.3,77,30.14,10.0,Calm,Calm,-,N/A,,Clear,0,2013-06-20 04:15:00
12:35 AM,58.1,51.4,78,30.14,10.0,Calm,Calm,-,N/A,,Clear,0,2013-06-20 04:35:00
12:55 AM,55.8,51.1,84,30.14,10.0,Calm,Calm,-,N/A,,Clear,0,2013-06-20 04:55:00
1:14 AM,55.4,51.8,88,30.14,10.0,Calm,Calm,-,N/A,,Clear,0,2013-06-20 05:14:00
1:35 AM,54.7,51.4,89,30.15,10.0,Calm,Calm,-,N/A,,Clear,0,2013-06-20 05:35:00
1:55 AM,55.0,51.3,87,30.15,10.0,Calm,Calm,-,N/A,,Clear,0,2013-06-20 05:55:00
2:14 AM,54.7,51.4,89,30.15,10.0,Calm,Calm,-,N/A,,Clear,0,2013-06-20 06:14:00
2:35 AM,54.7,51.6,89,30.15,10.0,Calm,Calm,-,N/A,,Clear,0,2013-06-20 06:35:00
2:55 AM,55.0,51.8,89,30.15,10.0,Calm,Calm,-,N/A,,Clear,0,2013-06-20 06:55:00
3:14 AM,55.4,51.3,86,30.16,10.0,Calm,Calm,-,N/A,,Clear,0,2013-06-20 07:14:00
3:35 AM,54.0,50.9,89,30.16,10.0,Calm,Calm,-,N/A,,Clear,0,2013-06-20 07:35:00
3:55 AM,54.0,50.9,89,30.16,10.0,Calm,Calm,-,N/A,,Clear,0,2013-06-20 07:55:00
4:15 AM,53.1,50.5,91,30.16,10.0,Calm,Calm,-,N/A,,Clear,0,2013-06-20 08:15:00
4:35 AM,53.6,50.9,91,30.17,10.0,Calm,Calm,-,N/A,,Clear,0,2013-06-20 08:35:00
4:55 AM,53.6,50.9,91,30.17,10.0,Calm,Calm,-,N/A,,Clear,0,2013-06-20 08:55:00
5:15 AM,54.0,50.4,88,30.17,10.0,Calm,Calm,-,N/A,,Clear,0,2013-06-20 09:15:00
5:35 AM,53.6,50.7,90,30.17,10.0,Calm,Calm,-,N/A,,Clear,0,2013-06-20 09:35:00
5:54 AM,53.2,50.7,91,30.17,10.0,Calm,Calm,-,N/A,,Clear,0,2013-06-20 09:54:00
6:15 AM,52.9,50.2,91,30.18,10.0,Calm,Calm,-,N/A,,Clear,0,2013-06-20 10:15:00
6:35 AM,53.2,50.7,91,30.18,10.0,Calm,Calm,-,N/A,,Clear,0,2013-06-20 10:35:00
6:54 AM,54.3,51.8,91,30.18,10.0,Calm,Calm,-,N/A,,Clear,0,2013-06-20 10:54:00
7:15 AM,56.3,53.2,89,30.19,10.0,Calm,Calm,-,N/A,,Clear,0,2013-06-20 11:15:00
7:35 AM,57.4,52.7,84,30.19,10.0,Calm,Calm,-,N/A,,Clear,0,2013-06-20 11:35:00
7:54 AM,59.4,53.8,82,30.19,10.0,Calm,Calm,-,N/A,,Clear,0,2013-06-20 11:54:00
8:15 AM,60.8,54.5,80,30.20,10.0,Calm,Calm,-,N/A,,Clear,0,2013-06-20 12:15:00
8:35 AM,62.4,54.7,76,30.21,10.0,Calm,Calm,-,N/A,,Clear,0,2013-06-20 12:35:00
8:55 AM,64.0,55.0,73,30.21,7.0,SSW,3.5,-,N/A,,Clear,200,2013-06-20 12:55:00
9:15 AM,65.5,54.7,68,30.21,10.0,Calm,Calm,-,N/A,,Clear,0,2013-06-20 13:15:00
9:34 AM,67.1,55.4,66,30.21,10.0,Calm,Calm,-,N/A,,Clear,0,2013-06-20 13:34:00
9:55 AM,69.4,56.5,63,30.20,10.0,Calm,Calm,-,N/A,,Clear,0,2013-06-20 13:55:00
10:15 AM,70.5,55.9,60,30.21,10.0,Calm,Calm,-,N/A,,Clear,0,2013-06-20 14:15:00
10:35 AM,72.1,56.5,58,30.21,10.0,SSW,4.6,-,N/A,,Clear,200,2013-06-20 14:35:00
10:55 AM,73.4,56.7,56,30.21,10.0,Calm,Calm,-,N/A,,Clear,0,2013-06-20 14:55:00
11:15 AM,75.0,57.2,54,30.21,10.0,Calm,Calm,-,N/A,,Clear,0,2013-06-20 15:15:00
11:35 AM,76.5,56.3,50,30.21,10.0,SSW,4.6,-,N/A,,Clear,210,2013-06-20 15:35:00
11:55 AM,77.5,56.5,48,30.21,10.0,NW,3.5,-,N/A,,Clear,320,2013-06-20 15:55:00
12:14 PM,77.0,54.5,46,30.20,10.0,SSW,3.5,-,N/A,,Clear,200,2013-06-20 16:14:00
12:35 PM,77.9,54.0,43,30.20,10.0,Calm,Calm,-,N/A,,Clear,0,2013-06-20 16:35:00
12:55 PM,78.1,54.5,44,30.20,10.0,Calm,Calm,-,N/A,,Clear,0,2013-06-20 16:55:00
1:15 PM,78.3,55.0,45,30.21,10.0,SW,4.6,-,N/A,,Clear,230,2013-06-20 17:15:00
1:35 PM,78.8,54.5,43,30.20,10.0,SSW,3.5,-,N/A,,Clear,200,2013-06-20 17:35:00
1:54 PM,79.3,52.3,39,30.20,10.0,Calm,Calm,-,N/A,,Clear,0,2013-06-20 17:54:00
2:15 PM,79.2,51.6,38,30.19,10.0,Calm,Calm,-,N/A,,Clear,0,2013-06-20 18:15:00
2:35 PM,79.7,54.0,41,30.19,10.0,Calm,Calm,-,N/A,,Clear,0,2013-06-20 18:35:00
2:54 PM,80.4,55.2,42,30.19,10.0,SSE,6.9,-,N/A,,Clear,150,2013-06-20 18:54:00
3:15 PM,80.1,53.4,40,30.18,10.0,SE,3.5,-,N/A,,Scattered Clouds,130,2013-06-20 19:15:00
3:35 PM,79.3,52.5,39,30.18,10.0,NE,3.5,-,N/A,,Scattered Clouds,40,2013-06-20 19:35:00
3:55 PM,80.6,52.5,38,30.18,10.0,Calm,Calm,-,N/A,,Scattered Clouds,0,2013-06-20 19:55:00
4:15 PM,80.4,51.4,36,30.17,10.0,Calm,Calm,-,N/A,,Clear,0,2013-06-20 20:15:00
4:35 PM,81.0,52.9,38,30.16,10.0,East,6.9,-,N/A,,Clear,100,2013-06-20 20:35:00
4:55 PM,81.0,53.2,38,30.16,10.0,East,4.6,-,N/A,,Clear,90,2013-06-20 20:55:00
5:15 PM,80.6,52.5,38,30.16,10.0,East,3.5,-,N/A,,Clear,80,2013-06-20 21:15:00
5:35 PM,81.0,52.5,37,30.15,10.0,Calm,Calm,-,N/A,,Clear,0,2013-06-20 21:35:00
5:55 PM,80.8,52.9,38,30.15,10.0,Calm,Calm,-,N/A,,Clear,0,2013-06-20 21:55:00
6:15 PM,81.3,54.1,39,30.15,10.0,SSW,4.6,-,N/A,,Clear,210,2013-06-20 22:15:00
6:35 PM,80.6,55.8,42,30.14,10.0,South,6.9,-,N/A,,Clear,170,2013-06-20 22:35:00
6:55 PM,79.7,57.4,46,30.15,10.0,South,5.8,-,N/A,,Clear,180,2013-06-20 22:55:00
7:15 PM,79.9,54.5,41,30.15,10.0,Calm,Calm,-,N/A,,Clear,0,2013-06-20 23:15:00
7:35 PM,79.9,54.9,42,30.15,10.0,Calm,Calm,-,N/A,,Clear,0,2013-06-20 23:35:00
7:55 PM,79.9,58.6,48,30.14,10.0,Calm,Calm,-,N/A,,Clear,0,2013-06-20 23:55:00
8:15 PM,78.1,58.3,50,30.14,10.0,Calm,Calm,-,N/A,,Clear,0,2013-06-21 00:15:00
8:35 PM,76.5,58.5,54,30.14,10.0,SSE,4.6,-,N/A,,Clear,160,2013-06-21 00:35:00
8:54 PM,76.1,58.1,54,30.15,10.0,SSE,4.6,-,N/A,,Clear,150,2013-06-21 00:54:00
9:15 PM,75.6,58.3,55,30.15,10.0,NE,3.5,-,N/A,,Clear,50,2013-06-21 01:15:00
9:35 PM,74.3,59.2,59,30.15,10.0,Calm,Calm,-,N/A,,Scattered Clouds,0,2013-06-21 01:35:00
9:54 PM,72.7,59.9,64,30.15,10.0,SE,3.5,-,N/A,,Scattered Clouds,140,2013-06-21 01:54:00
10:15 PM,73.0,60.3,64,30.15,10.0,Calm,Calm,-,N/A,,Scattered Clouds,0,2013-06-21 02:15:00
10:35 PM,70.9,60.8,70,30.16,10.0,ESE,3.5,-,N/A,,Clear,120,2013-06-21 02:35:00
10:55 PM,70.2,61.0,73,30.16,10.0,Calm,Calm,-,N/A,,Clear,0,2013-06-21 02:55:00
11:15 PM,69.1,61.0,75,30.17,10.0,Calm,Calm,-,N/A,,Scattered Clouds,0,2013-06-21 03:15:00
11:35 PM,70.0,61.5,74,30.17,10.0,Calm,Calm,-,N/A,,Mostly Cloudy,0,2013-06-21 03:35:00
11:55 PM,68.5,61.3,78,30.17,10.0,Calm,Calm,-,N/A,,Scattered Clouds,0,2013-06-21 03:55:00